When you browse on this site, cookies collect data to enhance your experience and personalize the content and advertising you see.
Visit our Privacy Policy to learn more. By continuing to use the site, you agree to this use of cookies and data.
  • In Switzerland
  • List of Countries
  • For 7 days
  • Water Temperature
  • Satellite Maps
  • Weather Map
  • Weather Widgets
  • user-avatar
    Login

    Hourly Weather Igls

    Today, 22 May, Wednesday

    Time Temperature Precipitation Wind Pressure Humidity
    00:00 +8°C° 0.2 mm 1 mps 682 mmHg 96%
    01:00 +8°C° 0.2 mm 1 mps 682 mmHg 96%
    02:00 +8°C° 0.1 mm 1 mps 682 mmHg 96%
    03:00 +8°C° 0.1 mm 1 mps 683 mmHg 96%
    04:00 +7°C° 0.1 mm 1 mps 683 mmHg 96%
    05:00 +8°C° 0.1 mm 1 mps 683 mmHg 94%
    06:00 +9°C° 0.1 mm 1 mps 683 mmHg 93%
    07:00 +10°C° 0.1 mm 1 mps 683 mmHg 91%
    08:00 +11°C° 0.1 mm 1 mps 684 mmHg 88%
    09:00 +12°C° 0.1 mm 1 mps 684 mmHg 84%
    10:00 +13°C° 0.1 mm 2 mps 684 mmHg 80%
    11:00 +14°C° 0.1 mm 2 mps 684 mmHg 78%
    12:00 +15°C° 0.1 mm 2 mps 684 mmHg 75%
    13:00 +15°C° 0.1 mm 2 mps 685 mmHg 72%
    14:00 +15°C° 0.3 mm 2 mps 684 mmHg 75%
    15:00 +15°C° 0.3 mm 2 mps 684 mmHg 77%
    16:00 +15°C° 0.3 mm 2 mps 684 mmHg 79%
    17:00 +14°C° 0.3 mm 2 mps 684 mmHg 84%
    18:00 +13°C° 0.3 mm 2 mps 684 mmHg 89%
    19:00 +12°C° 0.3 mm 1 mps 684 mmHg 94%
    20:00 +11°C° 0.1 mm 1 mps 685 mmHg 95%
    21:00 +10°C° 0.1 mm 1 mps 685 mmHg 97%
    22:00 +10°C° 0.1 mm 1 mps 686 mmHg 98%
    23:00 +10°C° 0 mm 1 mps 686 mmHg 98%

    Tomorrow, 23 May, Thursday

    Time Temperature Precipitation Wind Pressure Humidity
    00:00 +9°C° 0 mm 1 mps 686 mmHg 97%
    01:00 +9°C° 0 mm 1 mps 686 mmHg 97%
    02:00 +9°C° 0 mm 1 mps 686 mmHg 97%
    03:00 +8°C° 0 mm 1 mps 686 mmHg 97%
    04:00 +6°C° 0 mm 0 mps 686 mmHg 97%
    05:00 +9°C° 0 mm 1 mps 686 mmHg 92%
    06:00 +10°C° 0 mm 1 mps 686 mmHg 88%
    07:00 +11°C° 0 mm 1 mps 686 mmHg 84%
    08:00 +13°C° 0 mm 1 mps 686 mmHg 76%
    09:00 +14°C° 0 mm 1 mps 686 mmHg 67%
    10:00 +16°C° 0 mm 1 mps 687 mmHg 59%
    11:00 +18°C° 0 mm 1 mps 686 mmHg 55%
    12:00 +18°C° 0 mm 2 mps 686 mmHg 51%
    13:00 +19°C° 0 mm 2 mps 686 mmHg 46%
    14:00 +18°C° 0 mm 2 mps 686 mmHg 47%
    15:00 +18°C° 0 mm 2 mps 686 mmHg 48%
    16:00 +18°C° 0 mm 2 mps 685 mmHg 49%
    17:00 +17°C° 0 mm 2 mps 685 mmHg 57%
    18:00 +15°C° 0 mm 2 mps 685 mmHg 65%
    19:00 +14°C° 0 mm 1 mps 685 mmHg 73%
    20:00 +12°C° 0 mm 1 mps 685 mmHg 79%
    21:00 +10°C° 0 mm 1 mps 685 mmHg 85%
    22:00 +8°C° 0 mm 1 mps 685 mmHg 91%
    23:00 +8°C° 0 mm 1 mps 685 mmHg 89%

    Day after tomorrow, 24 May, Friday

    Time Temperature Precipitation Wind Pressure Humidity
    00:00 +8°C° 0 mm 1 mps 685 mmHg 88%
    01:00 +8°C° 0 mm 1 mps 685 mmHg 87%
    02:00 +8°C° 0 mm 1 mps 685 mmHg 85%
    03:00 +8°C° 0 mm 1 mps 684 mmHg 82%
    04:00 +8°C° 0 mm 1 mps 684 mmHg 80%
    05:00 +10°C° 0 mm 1 mps 684 mmHg 73%
    06:00 +12°C° 0 mm 1 mps 685 mmHg 65%
    07:00 +13°C° 0 mm 0 mps 685 mmHg 58%
    08:00 +16°C° 0 mm 1 mps 685 mmHg 53%
    09:00 +19°C° 0 mm 1 mps 685 mmHg 48%
    10:00 +20°C° 0 mm 1 mps 685 mmHg 43%
    11:00 +21°C° 0 mm 1 mps 685 mmHg 43%
    12:00 +21°C° 0 mm 1 mps 685 mmHg 42%
    13:00 +21°C° 0 mm 2 mps 685 mmHg 41%
    14:00 +21°C° 0 mm 2 mps 684 mmHg 44%
    15:00 +20°C° 0 mm 2 mps 684 mmHg 47%
    16:00 +20°C° 0 mm 2 mps 684 mmHg 50%
    17:00 +18°C° 0.1 mm 2 mps 684 mmHg 58%
    18:00 +17°C° 0.1 mm 2 mps 683 mmHg 67%
    19:00 +15°C° 0.1 mm 1 mps 683 mmHg 75%
    20:00 +14°C° 0.1 mm 1 mps 683 mmHg 81%
    21:00 +12°C° 0.1 mm 1 mps 683 mmHg 87%
    22:00 +10°C° 0.1 mm 0 mps 683 mmHg 93%
    23:00 +10°C° 0.1 mm 0 mps 683 mmHg 93%

    25 May, Saturday

    Time Temperature Precipitation Wind Pressure Humidity
    00:00 +10°C° 0.1 mm 0 mps 683 mmHg 93%
    01:00 +9°C° 0.1 mm 0 mps 683 mmHg 93%
    02:00 +9°C° 0.1 mm 0 mps 683 mmHg 93%
    03:00 +9°C° 0.1 mm 0 mps 683 mmHg 93%
    04:00 +9°C° 0.1 mm 0 mps 683 mmHg 93%
    05:00 +11°C° 0.1 mm 0 mps 683 mmHg 88%
    06:00 +12°C° 0.1 mm 0 mps 683 mmHg 82%
    07:00 +14°C° 0.1 mm 0 mps 684 mmHg 77%
    08:00 +15°C° 0.3 mm 0 mps 684 mmHg 75%
    09:00 +16°C° 0.3 mm 1 mps 684 mmHg 73%
    10:00 +18°C° 0.3 mm 1 mps 685 mmHg 70%
    11:00 +18°C° 0.8 mm 1 mps 684 mmHg 73%
    12:00 +18°C° 0.8 mm 1 mps 684 mmHg 75%
    13:00 +18°C° 0.8 mm 1 mps 684 mmHg 78%
    14:00 +18°C° 0.9 mm 1 mps 684 mmHg 80%
    15:00 +16°C° 0.9 mm 1 mps 684 mmHg 83%
    16:00 +16°C° 0.9 mm 1 mps 683 mmHg 86%
    17:00 +15°C° 0.5 mm 1 mps 683 mmHg 88%
    18:00 +14°C° 0.5 mm 0 mps 684 mmHg 90%
    19:00 +13°C° 0.5 mm 0 mps 684 mmHg 93%
    20:00 +12°C° 0.1 mm 0 mps 684 mmHg 94%
    21:00 +11°C° 0.1 mm 0 mps 684 mmHg 95%
    22:00 +11°C° 0.1 mm 1 mps 684 mmHg 96%
    23:00 +11°C° 0 mm 1 mps 684 mmHg 96%

    26 May, Sunday

    Time Temperature Precipitation Wind Pressure Humidity
    00:00 +10°C° 0 mm 1 mps 684 mmHg 95%
    01:00 +10°C° 0 mm 1 mps 684 mmHg 95%
    02:00 +10°C° 0 mm 1 mps 684 mmHg 95%
    03:00 +9°C° 0 mm 1 mps 684 mmHg 95%
    04:00 +9°C° 0 mm 1 mps 684 mmHg 95%
    05:00 +11°C° 0 mm 1 mps 684 mmHg 92%
    06:00 +12°C° 0 mm 1 mps 684 mmHg 89%
    07:00 +14°C° 0 mm 1 mps 685 mmHg 87%
    08:00 +16°C° 0 mm 1 mps 685 mmHg 78%
    09:00 +18°C° 0 mm 1 mps 685 mmHg 69%
    10:00 +20°C° 0 mm 1 mps 686 mmHg 60%
    11:00 +21°C° 0.1 mm 1 mps 686 mmHg 56%
    12:00 +21°C° 0.1 mm 1 mps 685 mmHg 52%
    13:00 +21°C° 0.1 mm 2 mps 685 mmHg 48%
    14:00 +21°C° 0.1 mm 2 mps 685 mmHg 50%
    15:00 +21°C° 0.1 mm 2 mps 685 mmHg 52%
    16:00 +20°C° 0.1 mm 2 mps 685 mmHg 54%
    17:00 +19°C° 0.1 mm 2 mps 684 mmHg 63%
    18:00 +17°C° 0.1 mm 2 mps 684 mmHg 72%
    19:00 +16°C° 0.1 mm 2 mps 684 mmHg 81%
    20:00 +15°C° 0.1 mm 1 mps 684 mmHg 86%
    21:00 +13°C° 0.1 mm 1 mps 684 mmHg 91%
    22:00 +11°C° 0.1 mm 0 mps 684 mmHg 96%
    23:00 +11°C° 0 mm 0 mps 684 mmHg 96%

    27 May, Monday

    Time Temperature Precipitation Wind Pressure Humidity
    00:00 +12°C° 0 mm 1 mps 684 mmHg 95%
    01:00 +11°C° 0 mm 1 mps 684 mmHg 94%
    02:00 +11°C° 0 mm 1 mps 684 mmHg 94%
    03:00 +11°C° 0 mm 1 mps 683 mmHg 93%
    04:00 +11°C° 0 mm 1 mps 683 mmHg 92%
    05:00 +13°C° 0 mm 1 mps 683 mmHg 87%
    06:00 +14°C° 0 mm 1 mps 684 mmHg 81%
    07:00 +16°C° 0 mm 1 mps 684 mmHg 76%
    08:00 +19°C° 0.2 mm 1 mps 684 mmHg 70%
    09:00 +20°C° 0.2 mm 1 mps 684 mmHg 65%
    10:00 +22°C° 0.2 mm 1 mps 685 mmHg 59%
    11:00 +22°C° 0.4 mm 1 mps 684 mmHg 61%
    12:00 +22°C° 0.4 mm 1 mps 684 mmHg 62%
    13:00 +22°C° 0.4 mm 1 mps 684 mmHg 64%
    14:00 +21°C° 0.8 mm 1 mps 683 mmHg 69%
    15:00 +20°C° 0.8 mm 1 mps 683 mmHg 75%
    16:00 +19°C° 0.8 mm 1 mps 683 mmHg 81%
    17:00 +18°C° 1.4 mm 1 mps 682 mmHg 85%
    18:00 +16°C° 1.4 mm 1 mps 682 mmHg 90%
    19:00 +15°C° 1.4 mm 0 mps 682 mmHg 94%
    20:00 +14°C° 1.3 mm 0 mps 682 mmHg 95%
    21:00 +14°C° 1.3 mm 0 mps 682 mmHg 95%
    22:00 +13°C° 1.3 mm 0 mps 682 mmHg 96%
    23:00 +13°C° 0.2 mm 1 mps 682 mmHg 96%
    Show more